Weather History for Greenville/Spartanburg, SC

Change the Weather History Date:

Saturday, September 6, 2014

  Actual Average Record
Temperature  
Mean Temperature 79 °F 75 °F  
Max Temperature 88 °F 85 °F 101 °F (1954)
Min Temperature 70 °F 65 °F 54 °F (1984)
Degree Days  
Heating Degree Days 0 0  
Month to date heating degree days 0 0  
Since 1 July heating degree days 0 0  
Cooling Degree Days 14 10  
Month to date cooling degree days 92 65  
Year to date cooling degree days 1489 1500  
Growing Degree Days 29 (Base 50)    
Moisture  
Dew Point 71 °F    
Average Humidity 74    
Maximum Humidity 93    
Minimum Humidity 55    
Precipitation  
Precipitation T in 0.12 in 6.20 in (1951)
Month to date precipitation 1.43 0.74  
Year to date precipitation 36.39 33.25  
Snow  
Snow 0.00 in 0.00 in 0.00 in ()
Month to date snowfall 0.0 0.0  
Since 1 July snowfall 0.0 0.0  
Since 1 September snowfall 0.0 0.0  
Snow Depth 0.00 in    
Sea Level Pressure  
Sea Level Pressure 30.02 in    
Wind  
Wind Speed 3 mph (NE)    
Max Wind Speed 10 mph    
Max Gust Speed 13 mph    
Visibility 10 miles    
Events Rain , Thunderstorm    
T = Trace of Precipitation, MM = Missing Value Source: NWS Daily Summary

Daily Weather History Graph

Daily Weather History Graph

Search for Another Location

Airport:

Trip Planner

Search our weather history database for the weather conditions in past years. The results will help you decide how hot, cold, wet, or windy it might be!

Date:

Astronomy

Sep. 06, 2014 Rise Set
Actual Time 7:05 AM EDT 7:48 PM EDT
Civil Twilight 6:39 AM EDT 8:14 PM EDT
Nautical Twilight 6:09 AM EDT 8:44 PM EDT
Astronomical Twilight 5:38 AM EDT 9:15 PM EDT
Moon 6:00 PM EDT (9/6) 4:10 AM EDT (9/6)
Length of Visible Light 13h 34m
Length of Day
12h 43m
Waxing Gibbous, 91% of the Moon is Illuminated
Sep 6
Waxing Gibbous
Sep 8
Full
Sep 15
Last Quarter
Sep 24
New
Oct 1
First Quarter

Hourly Weather History & Observations

Time (EDT) Temp. Heat Index Dew Point Humidity Pressure Visibility Wind Dir Wind Speed Gust Speed Precip Events Conditions
12:53 AM 73.9 °F - 71.1 °F 91% 30.07 in 10.0 mi Calm Calm - N/A   Scattered Clouds
1:53 AM 73.9 °F - 71.1 °F 91% 30.05 in 10.0 mi Calm Calm - N/A   Clear
2:53 AM 72.0 °F - 70.0 °F 93% 30.05 in 10.0 mi NE 3.5 mph - N/A   Scattered Clouds
3:53 AM 71.6 °F - 69.8 °F 94% 30.08 in 10.0 mi East 3.5 mph - N/A   Clear
4:53 AM 71.6 °F - 69.8 °F 94% 30.07 in 10.0 mi Calm Calm - N/A   Clear
5:53 AM 72.0 °F - 70.0 °F 93% 30.03 in 10.0 mi Calm Calm - N/A   Clear
6:53 AM 71.1 °F - 69.1 °F 93% 30.04 in 10.0 mi Calm Calm - N/A   Clear
7:23 AM 71.1 °F - 69.1 °F 93% 30.08 in 10.0 mi Calm Calm - N/A   Partly Cloudy
7:53 AM 71.1 °F - 70.0 °F 96% 30.05 in 10.0 mi Calm Calm - N/A   Clear
8:20 AM 73.9 °F - 71.1 °F 91% 30.10 in 10.0 mi North 3.5 mph - N/A   Partly Cloudy
8:36 AM 73.9 °F - 71.1 °F 91% 30.10 in 10.0 mi Calm Calm - N/A   Mostly Cloudy
8:53 AM 73.9 °F - 71.1 °F 91% 30.06 in 10.0 mi Calm Calm - N/A   Overcast
9:25 AM 77.0 °F - 72.0 °F 84% 30.09 in 10.0 mi Calm Calm - N/A   Scattered Clouds
9:53 AM 78.8 °F - 71.6 °F 78% 30.09 in 10.0 mi North 4.6 mph - N/A   Scattered Clouds
10:53 AM 79.0 °F - 71.1 °F 77% 30.06 in 10.0 mi Calm Calm - N/A   Mostly Cloudy
11:53 AM 82.0 °F 86.3 °F 71.1 °F 69% 30.04 in 10.0 mi ENE 5.8 mph - N/A   Scattered Clouds
12:53 PM 84.0 °F 89.6 °F 72.0 °F 67% 30.03 in 10.0 mi Calm Calm - N/A   Partly Cloudy
1:53 PM 84.9 °F 90.1 °F 71.1 °F 63% 29.99 in 10.0 mi South 4.6 mph - N/A   Partly Cloudy
2:53 PM 87.1 °F 92.0 °F 70.0 °F 57% 29.97 in 10.0 mi SSE 10.4 mph - N/A   Clear
3:53 PM 88.0 °F 93.8 °F 71.1 °F 57% 29.94 in 10.0 mi SE 5.8 mph - N/A   Partly Cloudy
4:53 PM 88.0 °F 92.1 °F 69.1 °F 53% 29.93 in 10.0 mi South 6.9 mph - N/A   Clear
5:53 PM 84.9 °F 90.1 °F 71.1 °F 63% 29.92 in 10.0 mi SE 3.5 mph - N/A   Clear
6:50 PM 82.4 °F 87.2 °F 71.6 °F 70% 29.96 in 10.0 mi NNE 4.6 mph - N/A Thunderstorm Clear
6:53 PM 82.9 °F 88.0 °F 72.0 °F 69% 29.93 in 10.0 mi NE 4.6 mph - N/A Thunderstorm Clear
7:05 PM 82.9 °F 87.5 °F 71.1 °F 67% 29.97 in 10.0 mi North 8.1 mph - N/A   Partly Cloudy
7:53 PM 80.1 °F 83.6 °F 71.1 °F 74% 29.95 in 10.0 mi North 4.6 mph - N/A   Overcast
8:53 PM 78.1 °F - 71.1 °F 79% 29.97 in 10.0 mi Calm Calm - N/A   Mostly Cloudy
9:53 PM 78.1 °F - 70.0 °F 76% 29.98 in 10.0 mi North 4.6 mph - N/A   Clear
10:53 PM 78.1 °F - 70.0 °F 76% 29.99 in 10.0 mi North 4.6 mph - N/A   Overcast
11:53 PM 78.1 °F - 72.0 °F 81% 29.98 in 10.0 mi NNE 8.1 mph - 0.00 in Rain Light Rain